Regional Weather Roundup
Issued by NWS Charleston, SC

Current Version | Previous Version | Graphics & Text | Print | Product List | Glossary On
Versions: 1 2 3 4 5 6 7 8 9 10 11 12 13 14 15 16 17 18 19 20 21 22 23 24 25 26 27 28 29 30 31 32 33 34 35 36 37 38 39 40 41 42 43 44 45 46 47 48 49 50
496 ASUS42 KCHS 211427 RWRCHS Regional Weather Roundup National Weather Service Charleston SC 900 AM EST WED FEB 21 2018 NOTE: "fair" indicates few or no clouds below 12,000 feet with no significant weather and/or obstructions to visibility. Not all stations are quality controlled. Use data with caution, especially dewpoint observations. SCZ027-030-031-034>040-042>050-211500- ...Southeast South Carolina... CITY SKY/WX TMP DP RH WIND PRES REMARKS N Charleston FAIR 72 68 87 VRB6 30.47R Waterfront Prk N/A 63 63 100 CALM 30.32S Mount Pleasant FAIR 72 70 94 S7 30.48R Johns Island PTSUNNY 72 72 100 SE5 30.48R Pinopolis N/A 63 63 100 CALM 30.38 Moncks Corner PTSUNNY 66 64 94 CALM 30.48R FOG Summerville CLOUDY 64 64 100 CALM 30.49R Beaufort MCAS CLOUDY 70 69 97 SE5 30.46R Beaufort Arpt CLOUDY 72 68 88 S3 30.46S FOG Hilton Head Is MOSUNNY 68 66 94 S6 30.46S Walterboro CLOUDY 66 64 94 CALM 30.48R Allendale LGT RAIN 68 68 100 CALM 30.46R ...Southern Midlands and Pee Dee... CITY SKY/WX TMP DP RH WIND PRES REMARKS Georgetown FAIR 68 66 94 CALM 30.50R Kingstree CLOUDY 64 64 100 CALM 30.48S Orangeburg CLOUDY 65 65 100 VRB3 30.47S FOG Barnwell N/A 68 68 100 CALM 30.47R FOG Aiken CLOUDY 68 68 100 S9 30.48S Manning CLOUDY 64 64 100 MISG 30.48R FOG Columbia FAIR 72 68 87 SE9 30.45S Sumter CLOUDY 66 66 100 S5 30.46S FOG Florence FOG 65 65 100 S5 30.49R VSB 1/2 Myrtle Beach FAIR 67 66 97 S5 30.50R N Myrtle Beach FAIR 66 66 100 S6 30.49R $$ GAZ063-065-086>088-099>101-113>116-118-119-134>141-150-211500- ...Southeast Georgia... CITY SKY/WX TMP DP RH WIND PRES REMARKS Savannah Arpt CLOUDY 71 69 93 SE5 30.46R Hunter AAF FAIR 71 69 95 SE3 30.43R Fort Stewart PTSUNNY 69 69 100 SE5 30.43R Statesboro CLOUDY 70 32 24 SE3 30.46R HAZE Sylvania CLOUDY 69 69 100 CALM 30.47R Claxton CLOUDY 71 69 93 CALM 30.46R FOG ...CSRA, Central and far Southeast Georgia... CITY SKY/WX TMP DP RH WIND PRES REMARKS Thomson CLOUDY 70 66 89 SW6 30.49S Augusta-Bush PTSUNNY 70 67 90 S6 30.43S Augusta-Daniel CLOUDY 70 67 90 S7 30.45R Swainsboro CLOUDY 72 68 88 S6 30.46R Vidalia CLOUDY 72 70 94 S3 30.44S Eastman CLOUDY 74 62 65 S8 30.46R Hazlehurst PTSUNNY 74 67 78 S9 30.43R Alma CLOUDY 72 68 87 SE7 30.43R Waycross FAIR 74 71 91 S8 30.44R Jesup CLOUDY 73 68 83 CALM 30.45R Baxley CLOUDY 72 72 100 S7 30.44R Brunswick CLOUDY 72 66 83 S6 30.46R Saint Simons CLOUDY 70 68 93 SE6 30.45R $$ SCZ027-028-034-036>038-045-046-048>050-GAZ119-141-211500- ...Lake and Supplemental Coastal Observations... STATION/POSITION TIME TEMP WIND PRES WAVE SWELL AIR SEA DIR/SP/G HT/PER HT/PER/DIR (UTC) (F) (DEG/KT/KT) (MB) (FT/S) (FT/S/D) Winyah Bay 1345 67 150/ 1 1032.0S Lake Murray 1420 66 160/ 3/ 4 1030.5 ACE Basin NERRS 1345 68 CALM 1031.0S Fort Pulaski 1400 73 61 170/ 5/ 9 1031.6 Sapelo Island 1400 72 160/ 4 1031.0 $$ ANZ835-935-AMZ111-154-330-350-352-354-370-450-454-472-211500- ...C-MAN and Buoy Observations... STATION/POSITION TIME TEMP WIND PRES WAVE SWELL AIR SEA DIR/SP/G HT/PER HT/PER/DIR (UTC) (F) (DEG/KT/KT) (MB) (FT/S) (FT/S/D) Buoy 41004 1410 71 68 150/ 2/ 4 1032.0 Buoy 41008 1350 63 58 130/ 6/ 6 1030.8R 4/ 7 3/130/ 7 Folly Beach CMAN 1400 63 60/ 1/ 2 1032.4R Capers Nearshore 1308 58 58 130/ 4/ 8 1031.4R Fripp Nearshore 1408 62 59 110/ 4/ 6 1030.5R STATION/POSITION TIME TEMP WIND PRES WAVE SWELL AIR SEA DIR/SP/G HT/PER HT/PER/DIR (UTC) (F) (DEG/KT/KT) (MB) (FT/S) (FT/S/D) 5E St. Marys GA 1400 62 N/A 4/ 7 Frying Pan Buoy 1410 71 70 180/ 6/ 8 1032.7 Buoy 41025 1410 73 71 200/ 10/ 14 1033.7 Cape Lookout NC 1400 170/ 4/ 4 1033.2R Buoy 41002 1350 72 74 120/ 12/ 14 1033.7R 5/ 7 5/130/ 7 Buoy 41010 NOT AVBL St Augustine FL 1400 68 63 140/ 2/ 3 1030.6R $$

USA.gov is the U.S. government's official web portal to all federal, state and local government web resources and services.